User: anonymous   Login
Location: Squirrel Cove
(50.1074°N, 124.9139°W)
Time: 01:39:07
(UTC-07:00)
Language:

ESTCUBE 1 - Orbit

View from above orbital plane
View from above orbital plane
View from above satellite
View from above satellite

Ground track
Ground track

The orbit data is extracted from the following two-line orbital elements,

1 39161U 13021C   22136.15437738  .00001033  00000-0  16879-3 0  9990
2 39161  97.9071 214.2299 0009637 157.7403 202.4254 14.72872130484714
Epoch (UTC): 16 May 2022 03:42:18
Eccentricity: 0.0009637
inclination: 97.9071°
perigee height: 645 km
apogee height: 658 km
right ascension of ascending node: 214.2299°
argument of perigee: 157.7403°
revolutions per day: 14.72872130
mean anomaly at epoch: 202.4254°
orbit number at epoch: 48471

The dashed part of the orbit path shows where the satellite is in the earth's shadow,  

DLR